| time (UTC) | temp F | wind direction | speed MPH | gust MPH | rain 1hr in | rain 24hr in | rain mn in | humidity % | barometer mb |
| 20260504005533 | 53 | 247 | 5.0 | 10.0 | 0.00 | 0.00 | 0.00 | 48 | 1013.1 |
| 20260504004548 | 53 | 259 | 7.0 | 8.0 | 0.00 | 0.00 | 0.00 | 48 | 1013.1 |
| 20260504003531 | 52 | 243 | 10.0 | 12.0 | 0.00 | 0.00 | 0.00 | 48 | 1012.9 |
| 20260504002630 | 52 | 244 | 4.0 | 7.0 | 0.00 | 0.00 | 0.00 | 48 | 1013.0 |
| 20260504001630 | 53 | 270 | 7.0 | 10.0 | 0.00 | 0.00 | 0.00 | 48 | 1013.0 |
| 20260504000646 | 53 | 270 | 14.0 | 16.0 | 0.00 | 0.00 | 0.00 | 47 | 1012.9 |
| 20260503235647 | 53 | 247 | 4.0 | 5.0 | 0.00 | 0.00 | 0.00 | 47 | 1013.0 |
| 20260503234631 | 53 | 255 | 6.0 | 7.0 | 0.00 | 0.00 | 0.00 | 47 | 1013.0 |
| 20260503233632 | 53 | 265 | 7.0 | 10.0 | 0.00 | 0.00 | 0.00 | 47 | 1012.9 |
| 20260503231632 | 53 | 270 | 8.0 | 12.0 | 0.00 | 0.00 | 0.00 | 47 | 1013.1 |
| 20260503230630 | 53 | 270 | 10.0 | 11.0 | 0.00 | 0.00 | 0.00 | 46 | 1013.0 |
| 20260503225634 | 53 | 262 | 14.0 | 23.0 | 0.00 | 0.00 | 0.00 | 45 | 1013.2 |
| 20260503224732 | 53 | 262 | 16.0 | 17.0 | 0.00 | 0.00 | 0.00 | 45 | 1013.2 |
| 20260503222830 | 53 | 270 | 12.0 | 17.0 | 0.00 | 0.00 | 0.00 | 47 | 1013.6 |
| 20260503221831 | 53 | 247 | 19.0 | 19.0 | 0.00 | 0.00 | 0.00 | 45 | 1013.6 |
| 20260503220832 | 53 | 265 | 14.0 | 21.0 | 0.00 | 0.00 | 0.00 | 47 | 1013.2 |
| 20260503220729 | 53 | 258 | 18.0 | 20.0 | 0.00 | 0.00 | 0.00 | 46 | 1013.5 |
| 20260503215731 | 53 | 262 | 15.0 | 17.0 | 0.00 | 0.00 | 0.00 | 48 | 1013.1 |
| 20260503214731 | 53 | 247 | 17.0 | 25.0 | 0.00 | 0.00 | 0.00 | 49 | 1013.0 |
| 20260503213732 | 52 | 270 | 13.0 | 17.0 | 0.00 | 0.00 | 0.00 | 48 | 1013.1 |
| 20260503211731 | 53 | 270 | 13.0 | 17.0 | 0.00 | 0.00 | 0.00 | 48 | 1012.9 |
| 20260503211632 | 53 | 260 | 14.0 | 18.0 | 0.00 | 0.00 | 0.00 | 48 | 1012.9 |
| 20260503210730 | 52 | 270 | 12.0 | 19.0 | 0.00 | 0.00 | 0.00 | 48 | 1013.0 |
| 20260503203731 | 54 | 266 | 14.0 | 18.0 | 0.00 | 0.00 | 0.00 | 46 | 1013.1 |
| 20260503202731 | 54 | 261 | 14.0 | 19.0 | 0.00 | 0.00 | 0.00 | 45 | 1013.2 |
| 20260503201732 | 54 | 263 | 16.0 | 17.0 | 0.00 | 0.00 | 0.00 | 45 | 1013.3 |
| 20260503200731 | 54 | 270 | 17.0 | 17.0 | 0.00 | 0.00 | 0.00 | 44 | 1013.6 |
| 20260503195731 | 54 | 270 | 16.0 | 18.0 | 0.00 | 0.00 | 0.00 | 45 | 1013.5 |
| 20260503194830 | 54 | 225 | 16.0 | 16.0 | 0.00 | 0.00 | 0.00 | 44 | 1013.7 |
| 20260503193832 | 54 | 267 | 16.0 | 20.0 | 0.00 | 0.00 | 0.00 | 44 | 1013.8 |
| 20260503192830 | 54 | 256 | 11.0 | 15.0 | 0.00 | 0.00 | 0.00 | 44 | 1014.0 |
| 20260503191830 | 53 | 261 | 14.0 | 18.0 | 0.00 | 0.00 | 0.00 | 43 | 1014.0 |
| 20260503190830 | 53 | 277 | 10.0 | 11.0 | 0.00 | 0.00 | 0.00 | 42 | 1014.2 |
| 20260503185832 | 53 | 258 | 16.0 | 20.0 | 0.00 | 0.00 | 0.00 | 41 | 1014.2 |
| 20260503184831 | 53 | 283 | 21.0 | 27.0 | 0.00 | 0.00 | 0.00 | 42 | 1014.5 |
| 20260503183931 | 53 | 270 | 13.0 | 14.0 | 0.00 | 0.00 | 0.00 | 41 | 1014.5 |
| 20260503183030 | 53 | 277 | 18.0 | 22.0 | 0.00 | 0.00 | 0.00 | 41 | 1014.5 |
| 20260503182031 | 52 | 270 | 21.0 | 21.0 | 0.00 | 0.00 | 0.00 | 41 | 1014.7 |
| 20260503181032 | 52 | 270 | 21.0 | 21.0 | 0.00 | 0.00 | 0.00 | 41 | 1014.7 |
| 20260503175131 | 50 | 285 | 13.0 | 17.0 | 0.00 | 0.00 | 0.00 | 39 | 1015.0 |
| 20260503174229 | 50 | 270 | 12.0 | 14.0 | 0.00 | 0.00 | 0.00 | 39 | 1015.4 |
| 20260503172232 | 50 | 254 | 10.0 | 12.0 | 0.00 | 0.00 | 0.00 | 43 | 1015.8 |
| 20260503170230 | 48 | 270 | 12.0 | 15.0 | 0.00 | 0.00 | 0.00 | 48 | 1015.9 |
| 20260503150429 | 47 | 263 | 16.0 | 21.0 | 0.00 | 0.00 | 0.00 | 55 | 1016.6 |
| 20260503140231 | 44 | 258 | 15.0 | 16.0 | 0.00 | 0.00 | 0.00 | 67 | 1016.7 |
| 20260503131331 | 43 | 247 | 8.0 | 12.0 | 0.00 | 0.00 | 0.00 | 67 | 1016.9 |
| 20260503130331 | 43 | 270 | 10.0 | 14.0 | 0.00 | 0.00 | 0.00 | 66 | 1016.8 |
| 20260503110430 | 34 | 169 | 0.0 | 1.0 | 0.00 | 0.00 | 0.00 | 95 | 1016.1 |
| 20260503080732 | 33 | 247 | 2.0 | 2.0 | 0.00 | 0.00 | 0.00 | 94 | 1016.2 |
| 20260503072832 | 33 | 270 | 1.0 | 2.0 | 0.00 | 0.00 | 0.00 | 94 | 1016.0 |
| 20260503071929 | 33 | 270 | 2.0 | 4.0 | 0.00 | 0.00 | 0.00 | 94 | 1015.9 |
| 20260503070931 | 33 | 247 | 1.0 | 2.0 | 0.00 | 0.00 | 0.00 | 94 | 1016.1 |
| 20260503055032 | 33 | 247 | 0.0 | 1.0 | 0.00 | 0.00 | 0.00 | 94 | 1016.6 |
| 20260503054029 | 33 | 247 | 0.0 | 1.0 | 0.00 | 0.00 | 0.00 | 93 | 1016.5 |
| 20260503051030 | 32 | 180 | 0.0 | 0.0 | 0.00 | 0.00 | 0.00 | 92 | 1016.7 |
| 20260503050047 | 33 | 180 | 0.0 | 0.0 | 0.00 | 0.00 | 0.00 | 92 | 1016.9 |
| 20260503045130 | 33 | 180 | 0.0 | 0.0 | 0.00 | 0.00 | 0.00 | 91 | 1016.9 |
| 20260503045033 | 33 | 180 | 0.0 | 0.0 | 0.00 | 0.00 | 0.00 | 92 | 1016.9 |
| 20260503044030 | 33 | 180 | 0.0 | 0.0 | 0.00 | 0.00 | 0.00 | 91 | 1017.0 |
| 20260503043032 | 34 | 180 | 0.0 | 1.0 | 0.00 | 0.00 | 0.00 | 91 | 1017.1 |
| 20260503042030 | 34 | 180 | 0.0 | 0.0 | 0.00 | 0.00 | 0.00 | 90 | 1017.2 |
| 20260503041031 | 34 | 180 | 0.0 | 0.0 | 0.00 | 0.00 | 0.00 | 90 | 1017.2 |
| 20260503040031 | 35 | 180 | 2.0 | 3.0 | 0.00 | 0.00 | 0.00 | 90 | 1017.2 |
| 20260503035024 | 35 | 157 | 0.0 | 0.0 | 0.00 | 0.00 | 0.00 | 89 | 1017.3 |
| 20260503034124 | 35 | 157 | 0.0 | 1.0 | 0.00 | 0.00 | 0.00 | 87 | 1017.4 |
| 20260503032124 | 35 | 157 | 0.0 | 0.0 | 0.00 | 0.00 | 0.00 | 86 | 1017.5 |
| 20260503031123 | 35 | 157 | 0.0 | 0.0 | 0.00 | 0.00 | 0.00 | 85 | 1017.5 |
| 20260503025124 | 36 | 258 | 2.0 | 4.0 | 0.00 | 0.00 | 0.00 | 83 | 1017.7 |
| 20260503024125 | 37 | 247 | 4.0 | 5.0 | 0.00 | 0.00 | 0.00 | 83 | 1017.9 |
| 20260503023140 | 37 | 270 | 3.0 | 5.0 | 0.00 | 0.00 | 0.00 | 82 | 1017.9 |
| 20260503022222 | 37 | 255 | 2.0 | 2.0 | 0.00 | 0.00 | 0.00 | 82 | 1018.0 |
| 20260503021222 | 38 | 252 | 4.0 | 5.0 | 0.00 | 0.00 | 0.00 | 81 | 1018.0 |
| 20260503013323 | 38 | 270 | 4.0 | 4.0 | 0.00 | 0.00 | 0.00 | 79 | 1017.9 |
| 20260503012326 | 38 | 264 | 6.0 | 7.0 | 0.00 | 0.00 | 0.00 | 78 | 1018.0 |
| 20260503012224 | 38 | 270 | 4.0 | 5.0 | 0.00 | 0.00 | 0.00 | 78 | 1017.9 |
| 20260503011224 | 38 | 244 | 4.0 | 5.0 | 0.00 | 0.00 | 0.00 | 80 | 1018.0 |